Year,Month,Day,Hour,Minute,Value (Times are PST for temperature in C)
2009,03,01,00,00,4.90
2009,03,01,00,01,4.90
2009,03,01,00,02,4.90
2009,03,01,00,03,4.90
2009,03,01,00,04,4.90
2009,03,01,00,05,4.90
2009,03,01,00,06,4.90
2009,03,01,00,07,4.90
2009,03,01,00,08,4.90
2009,03,01,00,09,4.90
2009,03,01,00,10,4.90
2009,03,01,00,11,4.90
2009,03,01,00,12,4.90
2009,03,01,00,13,4.90
2009,03,01,00,14,4.90
2009,03,01,00,15,4.90
2009,03,01,00,16,4.90
2009,03,01,00,17,4.80
2009,03,01,00,18,4.80
2009,03,01,00,19,4.80
2009,03,01,00,20,4.90
2009,03,01,00,21,4.90
2009,03,01,00,22,4.90
2009,03,01,00,23,4.90
2009,03,01,00,24,4.90
2009,03,01,00,25,4.90
2009,03,01,00,26,4.90
2009,03,01,00,27,4.90
2009,03,01,00,28,4.90
2009,03,01,00,29,4.90
2009,03,01,00,30,4.80
2009,03,01,00,31,4.80
2009,03,01,00,32,4.80
2009,03,01,00,33,4.80
2009,03,01,00,34,4.80
2009,03,01,00,35,4.80
2009,03,01,00,36,4.90
2009,03,01,00,37,4.90
2009,03,01,00,38,4.90
2009,03,01,00,39,4.90
2009,03,01,00,40,4.90
2009,03,01,00,41,4.90
2009,03,01,00,42,4.90
2009,03,01,00,43,4.90
2009,03,01,00,44,4.90
2009,03,01,00,45,4.90
2009,03,01,00,46,4.90
2009,03,01,00,47,4.90
2009,03,01,00,48,4.90
2009,03,01,00,49,4.90
2009,03,01,00,50,4.90
2009,03,01,00,51,4.90
2009,03,01,00,52,4.90
2009,03,01,00,53,4.90
2009,03,01,00,54,4.90
2009,03,01,00,55,4.90
2009,03,01,00,56,4.90
2009,03,01,00,57,4.90
2009,03,01,00,58,4.90
2009,03,01,00,59,4.90
2009,03,01,01,00,4.90
2009,03,01,01,01,4.90
2009,03,01,01,02,4.90
2009,03,01,01,03,4.90
2009,03,01,01,04,4.90
2009,03,01,01,05,4.90
2009,03,01,01,06,4.90
2009,03,01,01,07,4.90
2009,03,01,01,08,4.90
2009,03,01,01,09,4.90
2009,03,01,01,10,4.90
2009,03,01,01,11,4.90
2009,03,01,01,12,4.90
2009,03,01,01,13,4.90
2009,03,01,01,14,4.90
2009,03,01,01,15,4.90
2009,03,01,01,16,4.90
2009,03,01,01,17,4.90
2009,03,01,01,18,4.90
2009,03,01,01,19,4.90
2009,03,01,01,20,4.90
2009,03,01,01,21,4.90
2009,03,01,01,22,4.90
2009,03,01,01,23,4.90
2009,03,01,01,24,4.90
2009,03,01,01,25,4.90
2009,03,01,01,26,4.90
2009,03,01,01,27,4.90
2009,03,01,01,28,4.90
2009,03,01,01,29,4.90
2009,03,01,01,30,4.90
2009,03,01,01,31,4.90
2009,03,01,01,32,4.90
2009,03,01,01,33,4.90
2009,03,01,01,34,4.80
2009,03,01,01,35,4.80
2009,03,01,01,36,4.80
2009,03,01,01,37,4.80
2009,03,01,01,38,4.80
2009,03,01,01,39,4.80
2009,03,01,01,40,4.80
2009,03,01,01,41,4.80
2009,03,01,01,42,4.80
2009,03,01,01,43,4.80
2009,03,01,01,44,4.80
2009,03,01,01,45,4.80
2009,03,01,01,46,4.80
2009,03,01,01,47,4.80
2009,03,01,01,48,4.80
2009,03,01,01,49,4.80
2009,03,01,01,50,4.80
2009,03,01,01,51,4.80
2009,03,01,01,52,4.80
2009,03,01,01,53,4.80
2009,03,01,01,54,4.80
2009,03,01,01,55,4.80
2009,03,01,01,56,4.80
2009,03,01,01,57,4.80
2009,03,01,01,58,4.80
2009,03,01,01,59,4.80
2009,03,01,02,00,4.80
2009,03,01,02,01,4.80
2009,03,01,02,02,4.80
2009,03,01,02,03,4.80
2009,03,01,02,04,4.80
2009,03,01,02,05,4.80
2009,03,01,02,06,4.80
2009,03,01,02,07,4.80
2009,03,01,02,08,4.80
2009,03,01,02,09,4.80
2009,03,01,02,10,4.80
2009,03,01,02,11,4.80
2009,03,01,02,12,4.80
2009,03,01,02,13,4.80
2009,03,01,02,14,4.80
2009,03,01,02,15,4.80
2009,03,01,02,16,4.80
2009,03,01,02,17,4.80
2009,03,01,02,18,4.80
2009,03,01,02,19,4.80
2009,03,01,02,20,4.90
2009,03,01,02,21,4.90
2009,03,01,02,22,4.90
2009,03,01,02,23,4.90
2009,03,01,02,24,4.90
2009,03,01,02,25,4.90
2009,03,01,02,26,4.90
2009,03,01,02,27,4.90
2009,03,01,02,28,4.90
2009,03,01,02,29,4.90
2009,03,01,02,30,4.90
2009,03,01,02,31,4.90
2009,03,01,02,32,4.90
2009,03,01,02,33,4.90
2009,03,01,02,34,4.90
2009,03,01,02,35,4.90
2009,03,01,02,36,4.90
2009,03,01,02,37,4.90
2009,03,01,02,38,4.90
2009,03,01,02,39,4.90
2009,03,01,02,40,4.90
2009,03,01,02,41,4.90
2009,03,01,02,42,4.90
2009,03,01,02,43,4.90
2009,03,01,02,44,4.90
2009,03,01,02,45,4.90
2009,03,01,02,46,4.90
2009,03,01,02,47,4.90
2009,03,01,02,48,4.90
2009,03,01,02,49,4.90
2009,03,01,02,50,4.90
2009,03,01,02,51,4.90
2009,03,01,02,52,5.00
2009,03,01,02,53,5.10
2009,03,01,02,54,5.10
2009,03,01,02,55,5.10
2009,03,01,02,56,5.10
2009,03,01,02,57,5.10
2009,03,01,02,58,5.10
2009,03,01,02,59,5.10
2009,03,01,03,00,5.10
2009,03,01,03,01,5.10
2009,03,01,03,02,5.10
2009,03,01,03,03,5.10
2009,03,01,03,04,5.10
2009,03,01,03,05,5.10
2009,03,01,03,06,5.10
2009,03,01,03,07,5.10
2009,03,01,03,08,5.10
2009,03,01,03,09,5.10
2009,03,01,03,10,5.10
2009,03,01,03,11,5.10
2009,03,01,03,12,5.10
2009,03,01,03,13,5.10
2009,03,01,03,14,5.10
2009,03,01,03,15,5.10
2009,03,01,03,16,5.10
2009,03,01,03,17,5.10
2009,03,01,03,18,5.10
2009,03,01,03,19,5.10
2009,03,01,03,20,5.10
2009,03,01,03,21,5.10
2009,03,01,03,22,5.10
2009,03,01,03,23,5.10
2009,03,01,03,24,5.10
2009,03,01,03,25,5.10
2009,03,01,03,26,5.10
2009,03,01,03,27,5.10
2009,03,01,03,28,5.10
2009,03,01,03,29,5.10
2009,03,01,03,30,5.10
2009,03,01,03,31,5.10
2009,03,01,03,32,5.20
2009,03,01,03,33,5.20
2009,03,01,03,34,5.20
2009,03,01,03,35,5.20
2009,03,01,03,36,5.20
2009,03,01,03,37,5.20
2009,03,01,03,38,5.20
2009,03,01,03,39,5.20
2009,03,01,03,40,5.20
2009,03,01,03,41,5.20
2009,03,01,03,42,5.20
2009,03,01,03,43,5.20
2009,03,01,03,44,5.20
2009,03,01,03,45,5.20
2009,03,01,03,46,5.20
2009,03,01,03,47,5.20
2009,03,01,03,48,5.20
2009,03,01,03,49,5.20
2009,03,01,03,50,5.20
2009,03,01,03,51,5.20
2009,03,01,03,52,5.20
2009,03,01,03,53,5.20
2009,03,01,03,54,5.20
2009,03,01,03,55,5.20
2009,03,01,03,56,5.20
2009,03,01,03,57,5.20
2009,03,01,03,58,5.20
2009,03,01,03,59,5.20
2009,03,01,04,00,5.20
2009,03,01,04,01,5.10
2009,03,01,04,02,5.10
2009,03,01,04,03,5.10
2009,03,01,04,04,5.10
2009,03,01,04,05,5.10
2009,03,01,04,06,5.10
2009,03,01,04,07,5.10
2009,03,01,04,08,5.10
2009,03,01,04,09,5.10
2009,03,01,04,10,5.10
2009,03,01,04,11,5.10
2009,03,01,04,12,5.10
2009,03,01,04,13,5.10
2009,03,01,04,14,5.10
2009,03,01,04,15,5.10
2009,03,01,04,16,5.10
2009,03,01,04,17,5.10
2009,03,01,04,18,5.10
2009,03,01,04,19,5.10
2009,03,01,04,20,5.10
2009,03,01,04,21,5.10
2009,03,01,04,22,5.10
2009,03,01,04,23,5.10
2009,03,01,04,24,5.10
2009,03,01,04,25,5.10
2009,03,01,04,26,5.10
2009,03,01,04,27,5.10
2009,03,01,04,28,5.10
2009,03,01,04,29,5.10
2009,03,01,04,30,5.10
2009,03,01,04,31,5.10
2009,03,01,04,32,5.10
2009,03,01,04,33,5.10
2009,03,01,04,34,5.10
2009,03,01,04,35,5.10
2009,03,01,04,36,5.20
2009,03,01,04,37,5.20
2009,03,01,04,38,5.20
2009,03,01,04,39,5.20
2009,03,01,04,40,5.20
2009,03,01,04,41,5.20
2009,03,01,04,42,5.30
2009,03,01,04,43,5.30
2009,03,01,04,44,5.30
2009,03,01,04,45,5.20
2009,03,01,04,46,5.20
2009,03,01,04,47,5.20
2009,03,01,04,48,5.20
2009,03,01,04,49,5.20
2009,03,01,04,50,5.20
2009,03,01,04,51,5.20
2009,03,01,04,52,5.20
2009,03,01,04,53,5.20
2009,03,01,04,54,5.20
2009,03,01,04,55,5.20
2009,03,01,04,56,5.20
2009,03,01,04,57,5.20
2009,03,01,04,58,5.20
2009,03,01,04,59,5.30
2009,03,01,05,00,5.30
2009,03,01,05,01,5.30
2009,03,01,05,02,5.30
2009,03,01,05,03,5.30
2009,03,01,05,04,5.30
2009,03,01,05,05,5.30
2009,03,01,05,06,5.30
2009,03,01,05,07,5.30
2009,03,01,05,08,5.30
2009,03,01,05,09,5.30
2009,03,01,05,10,5.30
2009,03,01,05,11,5.30
2009,03,01,05,12,5.30
2009,03,01,05,13,5.30
2009,03,01,05,14,5.30
2009,03,01,05,15,5.30
2009,03,01,05,16,5.30
2009,03,01,05,17,5.30
2009,03,01,05,18,5.30
2009,03,01,05,19,5.30
2009,03,01,05,20,5.30
2009,03,01,05,21,5.30
2009,03,01,05,22,5.30
2009,03,01,05,23,5.30
2009,03,01,05,24,5.20
2009,03,01,05,25,5.20
2009,03,01,05,26,5.20
2009,03,01,05,27,5.20
2009,03,01,05,28,5.20
2009,03,01,05,29,5.20
2009,03,01,05,30,5.20
2009,03,01,05,31,5.20
2009,03,01,05,32,5.20
2009,03,01,05,33,5.20
2009,03,01,05,34,5.20
2009,03,01,05,35,5.20
2009,03,01,05,36,5.20
2009,03,01,05,37,5.20
2009,03,01,05,38,5.20
2009,03,01,05,39,5.20
2009,03,01,05,40,5.30
2009,03,01,05,41,5.30
2009,03,01,05,42,5.30
2009,03,01,05,43,5.30
2009,03,01,05,44,5.30
2009,03,01,05,45,5.30
2009,03,01,05,46,5.30
2009,03,01,05,47,5.30
2009,03,01,05,48,5.30
2009,03,01,05,49,5.30
2009,03,01,05,50,5.30
2009,03,01,05,51,5.30
2009,03,01,05,52,5.30
2009,03,01,05,53,5.30
2009,03,01,05,54,5.30
2009,03,01,05,55,5.30
2009,03,01,05,56,5.30
2009,03,01,05,57,5.30
2009,03,01,05,58,5.30
2009,03,01,05,59,5.30
2009,03,01,06,00,5.30
2009,03,01,06,01,5.30
2009,03,01,06,02,5.30
2009,03,01,06,03,5.30
2009,03,01,06,04,5.30
2009,03,01,06,05,5.30
2009,03,01,06,06,5.30
2009,03,01,06,07,5.30
2009,03,01,06,08,5.30
2009,03,01,06,09,5.30
2009,03,01,06,10,5.30
2009,03,01,06,11,5.30
2009,03,01,06,12,5.30
2009,03,01,06,13,5.30
2009,03,01,06,14,5.30
2009,03,01,06,15,5.30
2009,03,01,06,16,5.30
2009,03,01,06,17,5.30
2009,03,01,06,18,5.30
2009,03,01,06,19,5.30
2009,03,01,06,20,5.30
2009,03,01,06,21,5.30
2009,03,01,06,22,5.30
2009,03,01,06,23,5.30
2009,03,01,06,24,5.30
2009,03,01,06,25,5.30
2009,03,01,06,26,5.30
2009,03,01,06,27,5.30
2009,03,01,06,28,5.30
2009,03,01,06,29,5.30
2009,03,01,06,30,5.30
2009,03,01,06,31,5.30
2009,03,01,06,32,5.30
2009,03,01,06,33,5.30
2009,03,01,06,34,5.30
2009,03,01,06,35,5.30
2009,03,01,06,36,5.30
2009,03,01,06,37,5.30
2009,03,01,06,38,5.30
2009,03,01,06,39,5.30
2009,03,01,06,40,5.30
2009,03,01,06,41,5.40
2009,03,01,06,42,5.40
2009,03,01,06,43,5.40
2009,03,01,06,44,5.40
2009,03,01,06,45,5.40
2009,03,01,06,46,5.50
2009,03,01,06,47,5.50
2009,03,01,06,48,5.50
2009,03,01,06,49,5.50
2009,03,01,06,50,5.50
2009,03,01,06,51,5.50
2009,03,01,06,52,5.50
2009,03,01,06,53,5.50
2009,03,01,06,54,5.50
2009,03,01,06,55,5.50
2009,03,01,06,56,5.50
2009,03,01,06,57,5.50
2009,03,01,06,58,5.50
2009,03,01,06,59,5.50
2009,03,01,07,00,5.50
2009,03,01,07,01,5.50
2009,03,01,07,02,5.50
2009,03,01,07,03,5.50
2009,03,01,07,04,5.50
2009,03,01,07,05,5.50
2009,03,01,07,06,5.50
2009,03,01,07,07,5.40
2009,03,01,07,08,5.50
2009,03,01,07,09,5.50
2009,03,01,07,10,5.50
2009,03,01,07,11,5.50
2009,03,01,07,12,5.50
2009,03,01,07,13,5.50
2009,03,01,07,14,5.50
2009,03,01,07,15,5.50
2009,03,01,07,16,5.50
2009,03,01,07,17,5.50
2009,03,01,07,18,5.50
2009,03,01,07,19,5.50
2009,03,01,07,20,5.50
2009,03,01,07,21,5.50
2009,03,01,07,22,5.50
2009,03,01,07,23,5.40
2009,03,01,07,24,5.50
2009,03,01,07,25,5.50
2009,03,01,07,26,5.50
2009,03,01,07,27,5.50
2009,03,01,07,28,5.50
2009,03,01,07,29,5.50
2009,03,01,07,30,5.50
2009,03,01,07,31,5.50
2009,03,01,07,32,5.50
2009,03,01,07,33,5.50
2009,03,01,07,34,5.50
2009,03,01,07,35,5.50
2009,03,01,07,36,5.50
2009,03,01,07,37,5.50
2009,03,01,07,38,5.50
2009,03,01,07,39,5.50
2009,03,01,07,40,5.50
2009,03,01,07,41,5.50
2009,03,01,07,42,5.50
2009,03,01,07,43,5.60
2009,03,01,07,44,5.60
2009,03,01,07,45,5.60
2009,03,01,07,46,5.60
2009,03,01,07,47,5.60
2009,03,01,07,48,5.60
2009,03,01,07,49,5.60
2009,03,01,07,50,5.60
2009,03,01,07,51,5.70
2009,03,01,07,52,5.70
2009,03,01,07,53,5.70
2009,03,01,07,54,5.70
2009,03,01,07,55,5.70
2009,03,01,07,56,5.70
2009,03,01,07,57,5.70
2009,03,01,07,58,5.70
2009,03,01,07,59,5.70
2009,03,01,08,00,5.70
2009,03,01,08,01,5.70
2009,03,01,08,02,5.70
2009,03,01,08,03,5.70
2009,03,01,08,04,5.70
2009,03,01,08,05,5.70
2009,03,01,08,06,5.80
2009,03,01,08,07,5.80
2009,03,01,08,08,5.80
2009,03,01,08,09,5.80
2009,03,01,08,10,5.80
2009,03,01,08,11,5.80
2009,03,01,08,12,5.80
2009,03,01,08,13,5.80
2009,03,01,08,14,5.80
2009,03,01,08,15,5.80
2009,03,01,08,16,5.90
2009,03,01,08,17,5.90
2009,03,01,08,18,5.90
2009,03,01,08,19,5.90
2009,03,01,08,20,5.90
2009,03,01,08,21,5.90
2009,03,01,08,22,5.90
2009,03,01,08,23,5.90
2009,03,01,08,24,5.90
2009,03,01,08,25,5.90
2009,03,01,08,26,5.90
2009,03,01,08,27,5.90
2009,03,01,08,28,6.00
2009,03,01,08,29,6.00
2009,03,01,08,30,6.00
2009,03,01,08,31,6.00
2009,03,01,08,32,6.00
2009,03,01,08,33,6.00
2009,03,01,08,34,6.00
2009,03,01,08,35,6.00
2009,03,01,08,36,6.10
2009,03,01,08,37,6.10
2009,03,01,08,38,6.10
2009,03,01,08,39,6.10
2009,03,01,08,40,6.20
2009,03,01,08,41,6.20
2009,03,01,08,42,6.20
2009,03,01,08,43,6.20
2009,03,01,08,44,6.20
2009,03,01,08,45,6.20
2009,03,01,08,46,6.20
2009,03,01,08,47,6.30
2009,03,01,08,48,6.30
2009,03,01,08,49,6.30
2009,03,01,08,50,6.40
2009,03,01,08,51,6.40
2009,03,01,08,52,6.40
2009,03,01,08,53,6.60
2009,03,01,08,54,6.60
2009,03,01,08,55,6.60
2009,03,01,08,56,6.70
2009,03,01,08,57,6.70
2009,03,01,08,58,6.80
2009,03,01,08,59,6.80
2009,03,01,09,00,6.90
2009,03,01,09,01,6.90
2009,03,01,09,02,7.00
2009,03,01,09,03,7.10
2009,03,01,09,04,7.10
2009,03,01,09,05,7.20
2009,03,01,09,06,7.20
2009,03,01,09,07,7.30
2009,03,01,09,08,7.30
2009,03,01,09,09,7.30
2009,03,01,09,10,7.40
2009,03,01,09,11,7.50
2009,03,01,09,12,7.50
2009,03,01,09,13,7.60
2009,03,01,09,14,7.60
2009,03,01,09,15,7.70
2009,03,01,09,16,7.80
2009,03,01,09,17,7.80
2009,03,01,09,18,7.80
2009,03,01,09,19,7.80
2009,03,01,09,20,7.80
2009,03,01,09,21,7.80
2009,03,01,09,22,7.80
2009,03,01,09,23,7.80
2009,03,01,09,24,7.90
2009,03,01,09,25,7.90
2009,03,01,09,26,7.90
2009,03,01,09,27,7.90
2009,03,01,09,28,7.90
2009,03,01,09,29,7.90
2009,03,01,09,30,7.90
2009,03,01,09,31,7.90
2009,03,01,09,32,7.90
2009,03,01,09,33,7.90
2009,03,01,09,34,8.00
2009,03,01,09,35,8.10
2009,03,01,09,36,8.20
2009,03,01,09,37,8.20
2009,03,01,09,38,8.20
2009,03,01,09,39,8.30
2009,03,01,09,40,8.30
2009,03,01,09,41,8.30
2009,03,01,09,42,8.40
2009,03,01,09,43,8.50
2009,03,01,09,44,8.60
2009,03,01,09,45,8.70
2009,03,01,09,46,8.60
2009,03,01,09,47,8.60
2009,03,01,09,48,8.70
2009,03,01,09,49,8.70
2009,03,01,09,50,8.70
2009,03,01,09,51,8.70
2009,03,01,09,52,8.70
2009,03,01,09,53,8.70
2009,03,01,09,54,8.70
2009,03,01,09,55,8.70
2009,03,01,09,56,8.70
2009,03,01,09,57,8.70
2009,03,01,09,58,8.70
2009,03,01,09,59,8.70
2009,03,01,10,00,8.70
2009,03,01,10,01,8.70
2009,03,01,10,02,8.70
2009,03,01,10,03,8.70
2009,03,01,10,04,8.70
2009,03,01,10,05,8.70
2009,03,01,10,06,8.70
2009,03,01,10,07,8.70
2009,03,01,10,08,8.70
2009,03,01,10,09,8.70
2009,03,01,10,10,8.70
2009,03,01,10,11,8.70
2009,03,01,10,12,8.70
2009,03,01,10,13,8.70
2009,03,01,10,14,8.80
2009,03,01,10,15,8.80
2009,03,01,10,16,8.80
2009,03,01,10,17,8.80
2009,03,01,10,18,8.80
2009,03,01,10,19,8.90
2009,03,01,10,20,8.90
2009,03,01,10,21,8.80
2009,03,01,10,22,8.80
2009,03,01,10,23,8.80
2009,03,01,10,24,8.80
2009,03,01,10,25,8.80
2009,03,01,10,26,8.70
2009,03,01,10,27,8.70
2009,03,01,10,28,8.80
2009,03,01,10,29,8.70
2009,03,01,10,30,8.70
2009,03,01,10,31,8.70
2009,03,01,10,32,8.70
2009,03,01,10,33,8.70
2009,03,01,10,34,8.70
2009,03,01,10,35,8.70
2009,03,01,10,36,8.70
2009,03,01,10,37,8.80
2009,03,01,10,38,8.80
2009,03,01,10,39,8.90
2009,03,01,10,40,8.90
2009,03,01,10,41,8.90
2009,03,01,10,42,8.90
2009,03,01,10,43,9.00
2009,03,01,10,44,9.00
2009,03,01,10,45,9.00
2009,03,01,10,46,9.10
2009,03,01,10,47,9.10
2009,03,01,10,48,9.10
2009,03,01,10,49,9.10
2009,03,01,10,50,9.10
2009,03,01,10,51,9.10
2009,03,01,10,52,9.10
2009,03,01,10,53,9.10
2009,03,01,10,54,9.10
2009,03,01,10,55,9.10
2009,03,01,10,56,9.10
2009,03,01,10,57,9.20
2009,03,01,10,58,9.20
2009,03,01,10,59,9.20
2009,03,01,11,00,9.30
2009,03,01,11,01,9.30
2009,03,01,11,02,9.30
2009,03,01,11,03,9.30
2009,03,01,11,04,9.20
2009,03,01,11,05,9.30
2009,03,01,11,06,9.30
2009,03,01,11,07,9.30
2009,03,01,11,08,9.30
2009,03,01,11,09,9.40
2009,03,01,11,10,9.40
2009,03,01,11,11,9.40
2009,03,01,11,12,9.50
2009,03,01,11,13,9.50
2009,03,01,11,14,9.50
2009,03,01,11,15,9.60
2009,03,01,11,16,9.60
2009,03,01,11,17,9.70
2009,03,01,11,18,9.70
2009,03,01,11,19,9.70
2009,03,01,11,20,9.70
2009,03,01,11,21,9.70
2009,03,01,11,22,9.70
2009,03,01,11,23,9.70
2009,03,01,11,24,9.70
2009,03,01,11,25,9.80
2009,03,01,11,26,9.80
2009,03,01,11,27,9.80
2009,03,01,11,28,9.80
2009,03,01,11,29,9.80
2009,03,01,11,30,9.90
2009,03,01,11,31,9.90
2009,03,01,11,32,9.90
2009,03,01,11,33,9.90
2009,03,01,11,34,9.90
2009,03,01,11,35,9.80
2009,03,01,11,36,9.80
2009,03,01,11,37,9.80
2009,03,01,11,38,9.80
2009,03,01,11,39,9.80
2009,03,01,11,40,9.80
2009,03,01,11,41,9.80
2009,03,01,11,42,9.80
2009,03,01,11,43,9.80
2009,03,01,11,44,9.80
2009,03,01,11,45,9.70
2009,03,01,11,46,9.70
2009,03,01,11,47,9.70
2009,03,01,11,48,9.70
2009,03,01,11,49,9.70
2009,03,01,11,50,9.70
2009,03,01,11,51,9.70
2009,03,01,11,52,9.70
2009,03,01,11,53,9.70
2009,03,01,11,54,9.70
2009,03,01,11,55,9.70
2009,03,01,11,56,9.70
2009,03,01,11,57,9.70
2009,03,01,11,58,9.80
2009,03,01,11,59,9.80
2009,03,01,12,00,9.90
2009,03,01,12,01,9.90
2009,03,01,12,02,9.90
2009,03,01,12,03,9.90
2009,03,01,12,04,9.90
2009,03,01,12,05,9.90
2009,03,01,12,06,9.90
2009,03,01,12,07,9.90
2009,03,01,12,08,9.90
2009,03,01,12,09,9.80
2009,03,01,12,10,9.80
2009,03,01,12,11,9.80
2009,03,01,12,12,9.80
2009,03,01,12,13,9.80
2009,03,01,12,14,9.90
2009,03,01,12,15,9.90
2009,03,01,12,16,9.90
2009,03,01,12,17,10.10
2009,03,01,12,18,10.10
2009,03,01,12,19,10.10
2009,03,01,12,20,10.10
2009,03,01,12,21,10.10
2009,03,01,12,22,10.10
2009,03,01,12,23,10.10
2009,03,01,12,24,10.10
2009,03,01,12,25,10.10
2009,03,01,12,26,10.10
2009,03,01,12,27,10.20
2009,03,01,12,28,10.20
2009,03,01,12,29,10.20
2009,03,01,12,30,10.20
2009,03,01,12,31,10.20
2009,03,01,12,32,10.20
2009,03,01,12,33,10.10
2009,03,01,12,34,10.10
2009,03,01,12,35,10.10
2009,03,01,12,36,10.10
2009,03,01,12,37,10.00
2009,03,01,12,38,9.90
2009,03,01,12,39,9.90
2009,03,01,12,40,9.90
2009,03,01,12,41,9.90
2009,03,01,12,42,9.90
2009,03,01,12,43,9.80
2009,03,01,12,44,9.70
2009,03,01,12,45,9.70
2009,03,01,12,46,9.70
2009,03,01,12,47,9.70
2009,03,01,12,48,9.70
2009,03,01,12,49,9.70
2009,03,01,12,50,9.70
2009,03,01,12,51,9.70
2009,03,01,12,52,9.70
2009,03,01,12,53,9.70
2009,03,01,12,54,9.70
2009,03,01,12,55,9.70
2009,03,01,12,56,9.70
2009,03,01,12,57,9.70
2009,03,01,12,58,9.70
2009,03,01,12,59,9.70
2009,03,01,13,00,9.70
2009,03,01,13,01,9.70
2009,03,01,13,02,9.70
2009,03,01,13,03,9.70
2009,03,01,13,04,9.70
2009,03,01,13,05,9.80
2009,03,01,13,06,9.80
2009,03,01,13,07,9.80
2009,03,01,13,08,9.80
2009,03,01,13,09,9.80
2009,03,01,13,10,9.80
2009,03,01,13,11,9.90
2009,03,01,13,12,9.90
2009,03,01,13,13,9.90
2009,03,01,13,14,9.90
2009,03,01,13,15,9.80
2009,03,01,13,16,9.90
2009,03,01,13,17,9.80
2009,03,01,13,18,9.80
2009,03,01,13,19,9.80
2009,03,01,13,20,9.80
2009,03,01,13,21,9.80
2009,03,01,13,22,9.80
2009,03,01,13,23,9.80
2009,03,01,13,24,9.70
2009,03,01,13,25,9.70
2009,03,01,13,26,9.70
2009,03,01,13,27,9.70
2009,03,01,13,28,9.70
2009,03,01,13,29,9.60
2009,03,01,13,30,9.60
2009,03,01,13,31,9.60
2009,03,01,13,32,9.60
2009,03,01,13,33,9.60
2009,03,01,13,34,9.60
2009,03,01,13,35,9.60
2009,03,01,13,36,9.60
2009,03,01,13,37,9.70
2009,03,01,13,38,9.70
2009,03,01,13,39,9.70
2009,03,01,13,40,9.70
2009,03,01,13,41,9.70
2009,03,01,13,42,9.70
2009,03,01,13,43,9.70
2009,03,01,13,44,9.70
2009,03,01,13,45,9.80
2009,03,01,13,46,9.80
2009,03,01,13,47,9.80
2009,03,01,13,48,9.80
2009,03,01,13,49,9.80
2009,03,01,13,50,9.80
2009,03,01,13,51,9.80
2009,03,01,13,52,9.80
2009,03,01,13,53,9.80
2009,03,01,13,54,9.90
2009,03,01,13,55,9.90
2009,03,01,13,56,9.90
2009,03,01,13,57,9.90
2009,03,01,13,58,9.80
2009,03,01,13,59,9.80
2009,03,01,14,00,9.80
2009,03,01,14,01,9.80
2009,03,01,14,02,9.80
2009,03,01,14,03,9.90
2009,03,01,14,04,9.90
2009,03,01,14,05,9.90
2009,03,01,14,06,9.90
2009,03,01,14,07,9.90
2009,03,01,14,08,9.90
2009,03,01,14,09,9.90
2009,03,01,14,10,9.90
2009,03,01,14,11,10.00
2009,03,01,14,12,10.10
2009,03,01,14,13,10.10
2009,03,01,14,14,10.10
2009,03,01,14,15,10.10
2009,03,01,14,16,10.10
2009,03,01,14,17,10.10
2009,03,01,14,18,10.10
2009,03,01,14,19,10.10
2009,03,01,14,20,10.10
2009,03,01,14,21,10.10
2009,03,01,14,22,10.10
2009,03,01,14,23,10.10
2009,03,01,14,24,10.10
2009,03,01,14,25,10.10
2009,03,01,14,26,10.10
2009,03,01,14,27,10.10
2009,03,01,14,28,10.10
2009,03,01,14,29,10.10
2009,03,01,14,30,10.10
2009,03,01,14,31,10.10
2009,03,01,14,32,10.10
2009,03,01,14,33,10.10
2009,03,01,14,34,10.10
2009,03,01,14,35,10.10
2009,03,01,14,36,10.10
2009,03,01,14,37,10.10
2009,03,01,14,38,10.10
2009,03,01,14,39,10.10
2009,03,01,14,40,10.10
2009,03,01,14,41,10.10
2009,03,01,14,42,10.10
2009,03,01,14,43,10.10
2009,03,01,14,44,10.10
2009,03,01,14,45,10.10
2009,03,01,14,46,10.10
2009,03,01,14,47,10.10
2009,03,01,14,48,10.10
2009,03,01,14,49,10.10
2009,03,01,14,50,10.10
2009,03,01,14,51,10.10
2009,03,01,14,52,10.10
2009,03,01,14,53,10.10
2009,03,01,14,54,10.10
2009,03,01,14,55,10.10
2009,03,01,14,56,10.10
2009,03,01,14,57,10.10
2009,03,01,14,58,10.10
2009,03,01,14,59,10.10
2009,03,01,15,00,10.10
2009,03,01,15,01,10.10
2009,03,01,15,02,10.20
2009,03,01,15,03,10.20
2009,03,01,15,04,10.20
2009,03,01,15,05,10.20
2009,03,01,15,06,10.20
2009,03,01,15,07,10.10
2009,03,01,15,08,10.10
2009,03,01,15,09,10.10
2009,03,01,15,10,10.10
2009,03,01,15,11,10.10
2009,03,01,15,12,10.10
2009,03,01,15,13,10.10
2009,03,01,15,14,10.10
2009,03,01,15,15,10.10
2009,03,01,15,16,10.10
2009,03,01,15,17,10.10
2009,03,01,15,18,10.10
2009,03,01,15,19,10.10
2009,03,01,15,20,10.10
2009,03,01,15,21,10.20
2009,03,01,15,22,10.20
2009,03,01,15,23,10.20
2009,03,01,15,24,10.20
2009,03,01,15,25,10.20
2009,03,01,15,26,10.20
2009,03,01,15,27,10.20
2009,03,01,15,28,10.20
2009,03,01,15,29,10.20
2009,03,01,15,30,10.20
2009,03,01,15,31,10.20
2009,03,01,15,32,10.20
2009,03,01,15,33,10.20
2009,03,01,15,34,10.20
2009,03,01,15,35,10.10
2009,03,01,15,36,10.10
2009,03,01,15,37,10.10
2009,03,01,15,38,10.10
2009,03,01,15,39,10.00
2009,03,01,15,40,9.90
2009,03,01,15,41,9.90
2009,03,01,15,42,9.90
2009,03,01,15,43,9.90
2009,03,01,15,44,9.90
2009,03,01,15,45,9.90
2009,03,01,15,46,9.90
2009,03,01,15,47,9.90
2009,03,01,15,48,9.90
2009,03,01,15,49,9.90
2009,03,01,15,50,10.00
2009,03,01,15,51,10.10
2009,03,01,15,52,10.10
2009,03,01,15,53,10.10
2009,03,01,15,54,10.10
2009,03,01,15,55,10.20
2009,03,01,15,56,10.20
2009,03,01,15,57,10.30
2009,03,01,15,58,10.30
2009,03,01,15,59,10.40
2009,03,01,16,00,10.40
2009,03,01,16,01,10.40
2009,03,01,16,02,10.40
2009,03,01,16,03,10.40
2009,03,01,16,04,10.60
2009,03,01,16,05,10.60
2009,03,01,16,06,10.60
2009,03,01,16,07,10.60
2009,03,01,16,08,10.60
2009,03,01,16,09,10.60
2009,03,01,16,10,10.60
2009,03,01,16,11,10.60
2009,03,01,16,12,10.60
2009,03,01,16,13,10.60
2009,03,01,16,14,10.60
2009,03,01,16,15,10.60
2009,03,01,16,16,10.60
2009,03,01,16,17,10.60
2009,03,01,16,18,10.60
2009,03,01,16,19,10.60
2009,03,01,16,20,10.60
2009,03,01,16,21,10.60
2009,03,01,16,22,10.60
2009,03,01,16,23,10.60
2009,03,01,16,24,10.60
2009,03,01,16,25,10.60
2009,03,01,16,26,10.60
2009,03,01,16,27,10.60
2009,03,01,16,28,10.60
2009,03,01,16,29,10.60
2009,03,01,16,30,10.60
2009,03,01,16,31,10.50
2009,03,01,16,32,10.40
2009,03,01,16,33,10.40
2009,03,01,16,34,10.40
2009,03,01,16,35,10.40
2009,03,01,16,36,10.30
2009,03,01,16,37,10.30
2009,03,01,16,38,10.30
2009,03,01,16,39,10.30
2009,03,01,16,40,10.30
2009,03,01,16,41,10.30
2009,03,01,16,42,10.40
2009,03,01,16,43,10.40
2009,03,01,16,44,10.40
2009,03,01,16,45,10.50
2009,03,01,16,46,10.60
2009,03,01,16,47,10.60
2009,03,01,16,48,10.60
2009,03,01,16,49,10.60
2009,03,01,16,50,10.60
2009,03,01,16,51,10.60
2009,03,01,16,52,10.60
2009,03,01,16,53,10.60
2009,03,01,16,54,10.60
2009,03,01,16,55,10.60
2009,03,01,16,56,10.60
2009,03,01,16,57,10.60
2009,03,01,16,58,10.50
2009,03,01,16,59,10.40
2009,03,01,17,00,10.40
2009,03,01,17,01,10.40
2009,03,01,17,02,10.40
2009,03,01,17,03,10.40
2009,03,01,17,04,10.40
2009,03,01,17,05,10.40
2009,03,01,17,06,10.30
2009,03,01,17,07,10.30
2009,03,01,17,08,10.20
2009,03,01,17,09,10.20
2009,03,01,17,10,10.20
2009,03,01,17,11,10.20
2009,03,01,17,12,10.20
2009,03,01,17,13,10.20
2009,03,01,17,14,10.20
2009,03,01,17,15,10.20
2009,03,01,17,16,10.20
2009,03,01,17,17,10.20
2009,03,01,17,18,10.20
2009,03,01,17,19,10.20
2009,03,01,17,20,10.20
2009,03,01,17,21,10.20
2009,03,01,17,22,10.20
2009,03,01,17,23,10.10
2009,03,01,17,24,10.10
2009,03,01,17,25,10.10
2009,03,01,17,26,10.10
2009,03,01,17,27,10.10
2009,03,01,17,28,10.10
2009,03,01,17,29,10.10
2009,03,01,17,30,10.10
2009,03,01,17,31,10.10
2009,03,01,17,32,10.10
2009,03,01,17,33,10.10
2009,03,01,17,34,10.10
2009,03,01,17,35,9.90
2009,03,01,17,36,9.90
2009,03,01,17,37,9.90
2009,03,01,17,38,9.90
2009,03,01,17,39,9.90
2009,03,01,17,40,9.90
2009,03,01,17,41,9.90
2009,03,01,17,42,9.90
2009,03,01,17,43,9.90
2009,03,01,17,44,9.90
2009,03,01,17,45,9.90
2009,03,01,17,46,9.90
2009,03,01,17,47,9.90
2009,03,01,17,48,9.90
2009,03,01,17,49,9.90
2009,03,01,17,50,9.90
2009,03,01,17,51,9.90
2009,03,01,17,52,9.90
2009,03,01,17,53,9.90
2009,03,01,17,54,10.00
2009,03,01,17,55,10.10
2009,03,01,17,56,10.10